[[{"header":{"parameterUnit":"m.s-1","parameterCategory":1,"la1":30.2991,"la2":30.254,"lo1":-89.0895,"lo2":-89.0444,"dy":0.0017,"dx":0.0017,"nx":28,"ny":28,"refTime":"2023-10-14T21:00:00:Z","depth":0,"parameterNumber":2,"parameterNumberName":"U-component_of_WINDS"},"data":[0,0,0,0,0,0,0,0,0,0,0,0,0,0,0,0,0,0,0,0,0,0,0,0,0,0,0,0,0,0,0,0,0,0,0,0,0,0,0,0,0,0,0,0,0,0,0,0,0,0,0,0,0,0,0,0,0,0,2.7029,2.7028,0,2.7,2.7,2.7,2.6949,2.6948,2.6947,2.6946,2.6915,2.6915,2.6916,0,0,0,0,0,0,0,0,0,0,0,0,0,2.7038,2.7038,2.7029,2.7028,2.7028,2.7001,2.7,2.7,2.6949,2.6948,2.6947,2.6946,2.6915,2.6915,2.6916,0,0,0,0,0,0,0,0,0,0,0,0,0,2.7025,2.7039,2.7029,2.6999,2.6996,2.7001,2.7,2.7,2.6949,2.6948,2.6946,2.6945,2.6915,2.6915,2.6916,2.6945,0,0,2.6916,2.6916,0,0,0,0,0,0,0,0,2.7025,2.7024,2.7004,2.7001,2.6998,2.6977,2.6992,2.6981,2.695,2.6967,2.6946,2.6944,2.6937,2.6935,2.6933,2.6944,2.6943,2.6916,2.6916,2.6916,2.6916,0,0,0,0,0,0,0,2.7026,2.7025,2.7017,2.7004,2.7,2.6988,2.6984,2.699,2.696,2.6965,2.6962,2.6959,2.6935,2.6933,2.6932,2.6942,2.6916,2.6916,2.6916,2.6916,2.6978,2.698,0,0,0,0,0,0,2.7032,2.7026,2.7018,2.7017,2.7009,2.6989,2.6985,2.6985,2.696,2.6955,2.696,2.6957,2.6933,2.6932,2.6931,2.6965,2.6916,2.6916,2.6916,2.6977,2.6979,2.698,0,0,0,0,0,0,2.7032,2.7032,2.7019,2.702,2.7018,2.699,2.6991,2.6985,2.6983,2.6956,2.6951,2.6964,2.6932,2.693,2.6943,2.6963,2.6916,2.6916,2.6975,2.6977,2.6979,2.7033,0,0,0,0,0,0,2.7033,2.7032,2.7043,2.7021,2.7018,2.7032,2.6992,2.6986,2.6984,2.6979,2.6958,2.6953,2.6931,2.6943,2.6943,2.6962,2.6917,2.6973,2.6976,2.6979,2.7029,2.7037,2.7043,0,0,0,0,0,2.7033,2.7058,2.7044,2.7043,2.7031,2.7033,2.7032,2.7006,2.6986,2.6996,2.698,2.6954,2.6961,2.6944,2.6944,2.6964,2.6971,2.6975,2.6978,2.7026,2.7035,2.7043,0,0,0,0,0,0,2.7082,2.7055,2.7038,2.7057,2.7048,2.7025,2.7037,2.7016,2.7012,2.7008,2.6976,2.6971,2.6988,2.6977,2.6959,2.6992,2.6962,2.6966,2.6999,2.7007,2.7014,2.7016,2.6917,0,0,0,0,0,2.7095,2.71,2.7075,2.7094,2.7091,2.7065,2.7065,2.7047,2.7035,2.7031,2.7015,2.7005,2.7005,2.7006,2.7004,2.7028,2.7023,2.7041,2.7049,2.7055,2.7058,2.7071,2.7079,2.6992,2.6992,2.6992,0,0,2.7122,2.7108,2.7112,2.7104,2.7095,2.71,2.7062,2.7069,2.7072,2.7032,2.7043,2.7031,2.7018,2.7036,2.7044,2.7028,2.7081,2.7059,2.7064,2.7064,2.7075,2.7083,2.7091,2.6994,2.6994,2.6993,0,0,2.7173,2.7163,2.7178,2.717,2.7157,2.7141,2.7145,2.7125,2.7116,2.7127,2.7097,2.7101,2.7101,2.7093,2.709,2.7141,2.7118,2.7142,2.7178,2.7191,2.7198,2.7204,2.7222,2.7229,2.7145,2.7145,2.7145,0,2.7208,2.7215,2.7188,2.7198,2.7195,2.7161,2.7176,2.7169,2.7156,2.7156,2.7139,2.714,2.7128,2.7145,2.7158,2.7156,2.716,2.7143,2.7199,2.7205,2.721,2.7227,2.7234,2.7148,2.7148,2.7148,2.7147,0,2.7258,2.7264,2.7277,2.7267,2.7266,2.7279,2.7255,2.7257,2.724,2.7225,2.7237,2.7223,2.7218,2.7221,2.7203,2.7236,2.7227,2.7205,2.7174,2.7222,2.7237,2.7244,2.7153,2.7152,2.7151,2.715,0,0,2.7337,2.7314,2.7319,2.7315,2.73,2.7303,2.7315,2.7311,2.7314,2.7308,2.7316,2.7319,2.73,2.7295,2.7277,2.7288,2.7331,2.7265,2.7264,2.7278,2.7367,2.7383,2.7391,2.7316,2.7317,2.7318,2.7368,0,2.7384,2.7403,2.7381,2.7403,2.7409,2.7377,2.7387,2.7379,2.7366,2.7369,2.7355,2.7357,2.7331,2.7329,2.7339,2.7323,2.7348,2.732,2.7323,2.7324,2.7327,2.7399,2.7415,2.7463,2.7374,2.7375,2.7376,0,2.7441,2.7439,2.7463,2.7447,2.7449,2.7458,2.7454,2.7457,2.7448,2.7438,2.7435,2.7413,2.7424,2.7395,2.7409,2.7391,2.7391,2.7384,2.7386,2.7384,2.7352,2.7399,2.7478,2.7485,2.7385,2.7384,2.7384,0,2.7497,2.7499,2.7514,2.7511,2.7494,2.7501,2.7494,2.7484,2.7484,2.7481,2.7481,2.7479,2.7477,2.7476,2.7455,2.7436,2.7472,2.7441,2.7464,2.7465,2.7472,2.7472,2.7551,2.7474,2.7474,2.7474,2.7474,0,2.7552,2.7568,2.7539,2.7548,2.7565,2.754,2.7558,2.7548,2.7539,2.7546,2.7519,2.7526,2.7497,2.7501,2.7485,2.75,2.7499,2.7492,2.7487,2.7494,2.7495,2.7493,2.7489,2.7476,2.7475,2.7475,2.7474,0,2.7616,2.7597,2.7611,2.7595,2.7591,2.7604,2.759,2.7598,2.7584,2.7593,2.7594,2.7573,2.7576,2.7556,2.7555,2.7544,2.7567,2.7557,2.757,2.7567,2.7591,2.7589,2.7671,2.7681,2.7598,2.7599,2.76,0,2.7651,2.7663,2.7648,2.7651,2.7646,2.7651,2.7652,2.7629,2.763,2.7622,2.7631,2.7633,2.7633,2.764,2.7624,2.7625,2.7614,2.7643,2.7613,2.762,2.7614,2.7613,2.7615,2.7649,2.765,2.7651,2.7651,0,2.7717,2.7708,2.771,2.771,2.7711,2.771,2.7706,2.771,2.7685,2.7689,2.7692,2.7693,2.7693,2.7696,2.7693,2.7686,2.7665,2.7661,2.7666,2.7673,2.768,2.7677,2.7586,2.7659,2.7658,2.7657,2.7657,2.7657,2.7768,2.7777,2.7769,2.7772,2.7768,2.7766,2.7773,2.7761,2.7764,2.7763,2.775,2.7757,2.7749,2.7743,2.7738,2.7744,2.773,2.7737,2.7739,2.7741,2.7745,2.768,2.7743,2.7743,2.7743,2.7742,2.7742,0,2.7832,2.7826,2.7829,2.7826,2.7829,2.7811,2.7806,2.781,2.7817,2.7812,2.7813,2.7818,2.7821,2.7807,2.7808,2.7815,2.7805,2.7816,2.7814,2.7813,2.7758,2.7753,2.7823,2.7823,2.7823,2.7823,2.7823,2.7823,2.7865,2.7881,2.7871,2.7885,2.7878,2.7885,2.7884,2.7883,2.7878,2.7886,2.7888,2.788,2.7871,2.7871,2.7873,2.7869,2.787,2.7884,2.7877,2.7825,2.7817,2.7809,2.7805,2.7885,2.7885,2.7932,2.7932,2.7933]},{"header":{"parameterUnit":"m.s-1","parameterCategory":1,"la1":30.2991,"la2":30.254,"lo1":-89.0895,"lo2":-89.0444,"dy":0.0017,"dx":0.0017,"nx":28,"ny":28,"refTime":"2023-10-14T21:00:00:Z","depth":0,"parameterNumber":3,"parameterNumberName":"V-component_of_WINDS"},"data":[0,0,0,0,0,0,0,0,0,0,0,0,0,0,0,0,0,0,0,0,0,0,0,0,0,0,0,0,0,0,0,0,0,0,0,0,0,0,0,0,0,0,0,0,0,0,0,0,0,0,0,0,0,0,0,0,0,0,-8.6768,-8.677,0,-8.6909,-8.691,-8.6912,-8.6845,-8.6841,-8.6838,-8.6834,-8.6972,-8.6978,-8.6985,0,0,0,0,0,0,0,0,0,0,0,0,0,-8.6436,-8.6443,-8.6768,-8.677,-8.6772,-8.6908,-8.691,-8.6912,-8.6845,-8.6841,-8.6837,-8.6833,-8.6969,-8.6978,-8.6986,0,0,0,0,0,0,0,0,0,0,0,0,0,-8.6579,-8.6445,-8.6768,-8.6755,-8.6755,-8.6908,-8.691,-8.6913,-8.6846,-8.6841,-8.6835,-8.683,-8.6967,-8.6977,-8.6987,-8.7159,0,0,-8.7019,-8.7024,0,0,0,0,0,0,0,0,-8.6571,-8.6591,-8.6755,-8.6756,-8.6757,-8.6854,-8.6844,-8.6995,-8.6848,-8.6811,-8.6834,-8.6828,-8.6936,-8.6949,-8.6987,-8.7165,-8.7171,-8.702,-8.7026,-8.7031,-8.7034,0,0,0,0,0,0,0,-8.6561,-8.6585,-8.6823,-8.6757,-8.6758,-8.674,-8.6755,-8.6872,-8.6902,-8.6814,-8.681,-8.6828,-8.6936,-8.6977,-8.6989,-8.7173,-8.702,-8.7029,-8.7035,-8.704,-8.7501,-8.7506,0,0,0,0,0,0,-8.6552,-8.6577,-8.6819,-8.6828,-8.6649,-8.6751,-8.6767,-8.6828,-8.6901,-8.6907,-8.6832,-8.6824,-8.6962,-8.6977,-8.6994,-8.7201,-8.7031,-8.7041,-8.7047,-8.7495,-8.7502,-8.7508,0,0,0,0,0,0,-8.6546,-8.6575,-8.6813,-8.6701,-8.673,-8.6762,-8.6831,-8.6833,-8.6875,-8.6914,-8.6918,-8.6869,-8.6958,-8.6979,-8.7119,-8.7205,-8.7045,-8.7055,-8.7488,-8.7497,-8.7505,-8.7615,0,0,0,0,0,0,-8.6536,-8.6573,-8.6639,-8.6703,-8.6737,-8.6938,-8.6837,-8.684,-8.6894,-8.6885,-8.695,-8.6956,-8.6955,-8.7104,-8.713,-8.7216,-8.7063,-8.748,-8.7492,-8.7502,-8.7604,-8.7627,-8.7647,0,0,0,0,0,-8.6525,-8.6663,-8.6643,-8.6673,-8.6821,-8.6943,-8.6962,-8.6961,-8.6901,-8.6968,-8.6993,-8.6954,-8.7191,-8.7119,-8.7147,-8.7238,-8.7475,-8.7489,-8.7502,-8.7595,-8.7623,-8.7646,0,0,0,0,0,0,-8.6605,-8.6671,-8.665,-8.6813,-8.6874,-8.6931,-8.7015,-8.699,-8.7066,-8.7054,-8.7047,-8.7063,-8.7208,-8.7237,-8.7155,-8.7409,-8.7324,-8.7343,-8.7385,-8.7412,-8.7432,-8.7422,-8.7072,0,0,0,0,0,-8.6643,-8.6738,-8.679,-8.6929,-8.696,-8.6983,-8.7036,-8.7031,-8.7091,-8.7116,-8.7151,-8.7211,-8.7299,-8.7357,-8.744,-8.7608,-8.7621,-8.7685,-8.7706,-8.7723,-8.774,-8.7832,-8.7861,-8.7553,-8.7552,-8.7552,0,0,-8.672,-8.6767,-8.6827,-8.6946,-8.6992,-8.709,-8.7005,-8.7111,-8.7183,-8.7131,-8.7266,-8.7295,-8.736,-8.7516,-8.7586,-8.7544,-8.7829,-8.774,-8.7754,-8.7761,-8.7849,-8.7878,-8.7904,-8.7562,-8.756,-8.7559,0,0,-8.691,-8.6956,-8.7078,-8.7127,-8.7198,-8.7213,-8.7242,-8.7305,-8.7323,-8.7459,-8.7423,-8.7507,-8.7659,-8.7707,-8.7752,-8.7964,-8.793,-8.7991,-8.8101,-8.8191,-8.8215,-8.8236,-8.8312,-8.8339,-8.8007,-8.8008,-8.8008,0,-8.6996,-8.7144,-8.7143,-8.7254,-8.7307,-8.7267,-8.739,-8.7436,-8.7531,-8.7568,-8.752,-8.7711,-8.7752,-8.7919,-8.7971,-8.8009,-8.8041,-8.7983,-8.8212,-8.8233,-8.8253,-8.8326,-8.8354,-8.8015,-8.8014,-8.8013,-8.8013,0,-8.7246,-8.7349,-8.7439,-8.7534,-8.7598,-8.7713,-8.7729,-8.7793,-8.7782,-8.7801,-8.794,-8.7989,-8.8082,-8.8121,-8.811,-8.8287,-8.8259,-8.8212,-8.8126,-8.829,-8.8357,-8.8385,-8.8025,-8.8022,-8.802,-8.8018,0,0,-8.749,-8.7586,-8.7618,-8.7662,-8.7739,-8.7818,-8.7932,-8.8026,-8.8081,-8.8147,-8.8242,-8.8373,-8.8331,-8.8382,-8.8376,-8.8455,-8.8621,-8.8399,-8.84,-8.8438,-8.8818,-8.8853,-8.8885,-8.8599,-8.8604,-8.8609,-8.8813,0,-8.7686,-8.7889,-8.7892,-8.8077,-8.8173,-8.8137,-8.8237,-8.8294,-8.8316,-8.8398,-8.842,-8.8514,-8.8451,-8.8481,-8.8558,-8.8584,-8.8697,-8.8569,-8.8686,-8.869,-8.8671,-8.8921,-8.8958,-8.9148,-8.8839,-8.8844,-8.8847,0,-8.7942,-8.802,-8.8216,-8.8282,-8.8321,-8.8411,-8.8498,-8.8578,-8.8642,-8.8652,-8.8711,-8.8694,-8.8809,-8.872,-8.8878,-8.8792,-8.884,-8.886,-8.8867,-8.8878,-8.8778,-8.8938,-8.9209,-8.9237,-8.8889,-8.8885,-8.8882,0,-8.8101,-8.8255,-8.8392,-8.843,-8.851,-8.8574,-8.8609,-8.8669,-8.8725,-8.8801,-8.8837,-8.8924,-8.8971,-8.9038,-8.9045,-8.898,-8.9204,-8.9116,-8.9215,-8.9215,-8.9263,-8.926,-8.9546,-8.9295,-8.9294,-8.9294,-8.9293,0,-8.8319,-8.8441,-8.8465,-8.855,-8.8684,-8.8686,-8.8819,-8.8849,-8.8903,-8.8991,-8.8965,-8.9048,-8.9052,-8.9138,-8.9143,-8.9274,-8.9295,-8.9305,-8.9305,-8.9308,-8.9307,-8.9339,-8.9326,-8.9301,-8.9299,-8.9298,-8.9297,0,-8.8519,-8.8541,-8.8688,-8.8753,-8.8772,-8.8868,-8.8922,-8.9002,-8.9022,-8.9134,-8.9161,-8.9191,-8.929,-8.9304,-8.9419,-8.9423,-8.958,-8.9566,-8.9559,-8.9557,-8.9655,-8.9646,-8.9971,-9.0014,-8.9735,-8.9738,-8.974,0,-8.8657,-8.875,-8.8826,-8.8885,-8.8925,-8.9019,-8.9078,-8.9084,-8.9145,-8.9227,-8.9297,-8.9394,-8.9472,-8.9632,-8.9663,-8.9751,-8.9739,-8.9847,-8.9752,-8.9752,-8.9741,-8.9735,-8.9744,-8.9865,-8.9868,-8.987,-8.9872,0,-8.8901,-8.8907,-8.8994,-8.9086,-8.9157,-8.9228,-8.9295,-8.9344,-8.9359,-8.9429,-8.9532,-8.9593,-8.9712,-8.9808,-8.9896,-8.993,-8.9904,-8.9903,-8.993,-8.9933,-8.9926,-8.9932,-8.9609,-8.9895,-8.9892,-8.9891,-8.989,-8.9889,-8.9074,-8.9155,-8.9222,-8.932,-8.9372,-8.9436,-8.9515,-8.9546,-8.9632,-8.9732,-8.9729,-8.9842,-8.9904,-9.002,-9.0061,-9.0148,-9.0112,-9.0152,-9.0162,-9.0172,-9.0182,-8.9913,-9.0164,-9.0163,-9.0163,-9.0162,-9.0162,0,-8.9316,-8.9358,-8.9448,-8.9545,-8.9622,-8.9593,-8.9666,-8.9732,-8.9833,-8.9894,-8.9973,-9.0091,-9.0185,-9.0224,-9.0316,-9.0378,-9.0369,-9.0402,-9.0397,-9.0406,-9.0208,-9.0176,-9.0409,-9.0409,-9.0409,-9.0408,-9.0408,-9.0408,-8.9451,-8.9588,-8.9603,-8.9765,-8.9805,-8.9918,-8.9962,-9.0021,-9.007,-9.0205,-9.0284,-9.031,-9.0363,-9.0459,-9.0543,-9.0552,-9.0587,-9.0626,-9.063,-9.0445,-9.042,-9.0396,-9.0365,-9.0634,-9.0634,-9.082,-9.0822,-9.0823]}]]